When you browse on this site, cookies collect data to enhance your experience and personalize the content and advertising you see.
Visit our Privacy Policy to learn more. By continuing to use the site, you agree to this use of cookies and data.
  • In France
  • List of Countries
  • For 7 days
  • Water Temperature
  • Satellite Maps
  • Weather Map
  • Weather Widgets
  • user-avatar
    Login

    Hourly Weather Dinagepoor

    Today, 21 November, Wednesday

    Time Temperature Precipitation Wind Pressure Humidity
    00:00 +23°C° 0 mm 1 mps 759 mmHg 60%
    01:00 +22°C° 0 mm 1 mps 759 mmHg 62%
    02:00 +22°C° 0 mm 1 mps 759 mmHg 64%
    03:00 +21°C° 0 mm 1 mps 759 mmHg 65%
    04:00 +21°C° 0 mm 1 mps 759 mmHg 68%
    05:00 +21°C° 0 mm 1 mps 759 mmHg 71%
    06:00 +20°C° 0 mm 1 mps 759 mmHg 67%
    07:00 +21°C° 0 mm 1 mps 760 mmHg 64%
    08:00 +23°C° 0 mm 1 mps 760 mmHg 60%
    09:00 +24°C° 0 mm 2 mps 760 mmHg 57%
    10:00 +26°C° 0 mm 2 mps 760 mmHg 52%
    11:00 +27°C° 0 mm 1 mps 759 mmHg 46%
    12:00 +30°C° 0 mm 1 mps 760 mmHg 39%
    13:00 +30°C° 0 mm 1 mps 759 mmHg 37%
    14:00 +30°C° 0 mm 1 mps 758 mmHg 36%
    15:00 +30°C° 0 mm 1 mps 757 mmHg 34%
    16:00 +28°C° 0 mm 1 mps 757 mmHg 38%
    17:00 +27°C° 0 mm 1 mps 758 mmHg 41%
    18:00 +25°C° 0 mm 1 mps 758 mmHg 45%
    19:00 +25°C° 0 mm 1 mps 758 mmHg 47%
    20:00 +24°C° 0 mm 1 mps 758 mmHg 49%
    21:00 +23°C° 0 mm 1 mps 759 mmHg 52%
    22:00 +23°C° 0 mm 1 mps 759 mmHg 53%
    23:00 +23°C° 0 mm 1 mps 759 mmHg 55%

    Tomorrow, 22 November, Thursday

    Time Temperature Precipitation Wind Pressure Humidity
    00:00 +22°C° 0 mm 1 mps 759 mmHg 57%
    01:00 +22°C° 0 mm 1 mps 759 mmHg 59%
    02:00 +21°C° 0 mm 1 mps 759 mmHg 62%
    03:00 +21°C° 0 mm 1 mps 759 mmHg 64%
    04:00 +20°C° 0 mm 1 mps 759 mmHg 66%
    05:00 +20°C° 0 mm 1 mps 759 mmHg 69%
    06:00 +20°C° 0 mm 1 mps 759 mmHg 71%
    07:00 +21°C° 0 mm 1 mps 760 mmHg 67%
    08:00 +23°C° 0 mm 1 mps 760 mmHg 63%
    09:00 +24°C° 0 mm 2 mps 761 mmHg 59%
    10:00 +26°C° 0 mm 1 mps 760 mmHg 54%
    11:00 +27°C° 0 mm 1 mps 760 mmHg 49%
    12:00 +29°C° 0 mm 1 mps 760 mmHg 43%
    13:00 +29°C° 0 mm 1 mps 759 mmHg 42%
    14:00 +29°C° 0 mm 2 mps 758 mmHg 40%
    15:00 +30°C° 0 mm 2 mps 758 mmHg 39%
    16:00 +28°C° 0 mm 2 mps 758 mmHg 43%
    17:00 +27°C° 0 mm 2 mps 758 mmHg 47%
    18:00 +25°C° 0 mm 1 mps 758 mmHg 51%
    19:00 +25°C° 0 mm 1 mps 759 mmHg 53%
    20:00 +24°C° 0 mm 1 mps 759 mmHg 55%
    21:00 +23°C° 0 mm 1 mps 760 mmHg 57%
    22:00 +23°C° 0 mm 1 mps 760 mmHg 58%
    23:00 +23°C° 0 mm 1 mps 759 mmHg 59%

    Day after tomorrow, 23 November, Friday

    Time Temperature Precipitation Wind Pressure Humidity
    00:00 +22°C° 0 mm 1 mps 759 mmHg 60%
    01:00 +22°C° 0 mm 1 mps 759 mmHg 61%
    02:00 +21°C° 0 mm 1 mps 759 mmHg 62%
    03:00 +21°C° 0 mm 1 mps 758 mmHg 63%
    04:00 +21°C° 0 mm 1 mps 759 mmHg 64%
    05:00 +21°C° 0 mm 1 mps 759 mmHg 64%
    06:00 +20°C° 0 mm 1 mps 759 mmHg 65%
    07:00 +22°C° 0 mm 1 mps 759 mmHg 61%
    08:00 +23°C° 0 mm 1 mps 760 mmHg 57%
    09:00 +25°C° 0 mm 1 mps 760 mmHg 52%
    10:00 +26°C° 0 mm 1 mps 760 mmHg 48%
    11:00 +28°C° 0 mm 1 mps 760 mmHg 45%
    12:00 +29°C° 0 mm 2 mps 759 mmHg 41%
    13:00 +29°C° 0 mm 2 mps 759 mmHg 40%
    14:00 +30°C° 0 mm 2 mps 758 mmHg 39%
    15:00 +30°C° 0 mm 2 mps 757 mmHg 38%
    16:00 +28°C° 0 mm 2 mps 757 mmHg 41%
    17:00 +27°C° 0 mm 1 mps 757 mmHg 44%
    18:00 +25°C° 0 mm 1 mps 757 mmHg 48%
    19:00 +25°C° 0 mm 1 mps 758 mmHg 49%
    20:00 +24°C° 0 mm 1 mps 758 mmHg 50%
    21:00 +24°C° 0 mm 1 mps 759 mmHg 51%
    22:00 +23°C° 0 mm 1 mps 759 mmHg 52%
    23:00 +23°C° 0 mm 1 mps 759 mmHg 53%

    24 November, Saturday

    Time Temperature Precipitation Wind Pressure Humidity
    00:00 +22°C° 0 mm 1 mps 758 mmHg 54%
    01:00 +22°C° 0 mm 1 mps 758 mmHg 55%
    02:00 +21°C° 0 mm 1 mps 758 mmHg 57%
    03:00 +21°C° 0 mm 1 mps 758 mmHg 59%
    04:00 +20°C° 0 mm 1 mps 758 mmHg 61%
    05:00 +20°C° 0 mm 1 mps 758 mmHg 63%
    06:00 +20°C° 0 mm 1 mps 758 mmHg 64%
    07:00 +21°C° 0 mm 1 mps 759 mmHg 61%
    08:00 +23°C° 0 mm 1 mps 760 mmHg 58%
    09:00 +24°C° 0 mm 2 mps 761 mmHg 54%
    10:00 +26°C° 0 mm 2 mps 760 mmHg 50%
    11:00 +27°C° 0 mm 2 mps 760 mmHg 47%
    12:00 +29°C° 0 mm 2 mps 759 mmHg 43%
    13:00 +29°C° 0 mm 2 mps 758 mmHg 41%
    14:00 +29°C° 0 mm 2 mps 758 mmHg 40%
    15:00 +30°C° 0 mm 1 mps 757 mmHg 38%
    16:00 +28°C° 0 mm 1 mps 757 mmHg 42%
    17:00 +27°C° 0 mm 1 mps 757 mmHg 46%
    18:00 +25°C° 0 mm 1 mps 757 mmHg 50%
    19:00 +25°C° 0 mm 1 mps 758 mmHg 51%
    20:00 +24°C° 0 mm 1 mps 759 mmHg 53%
    21:00 +23°C° 0 mm 1 mps 759 mmHg 54%
    22:00 +23°C° 0 mm 1 mps 759 mmHg 56%
    23:00 +22°C° 0 mm 1 mps 759 mmHg 57%

    25 November, Sunday

    Time Temperature Precipitation Wind Pressure Humidity
    00:00 +22°C° 0 mm 1 mps 759 mmHg 58%
    01:00 +21°C° 0 mm 1 mps 758 mmHg 60%
    02:00 +21°C° 0 mm 1 mps 758 mmHg 61%
    03:00 +21°C° 0 mm 1 mps 758 mmHg 62%
    04:00 +20°C° 0 mm 1 mps 758 mmHg 63%
    05:00 +20°C° 0 mm 1 mps 758 mmHg 64%
    06:00 +20°C° 0 mm 1 mps 758 mmHg 65%
    07:00 +21°C° 0 mm 1 mps 759 mmHg 61%
    08:00 +23°C° 0 mm 2 mps 760 mmHg 57%
    09:00 +24°C° 0 mm 2 mps 760 mmHg 53%
    10:00 +26°C° 0 mm 2 mps 760 mmHg 48%
    11:00 +27°C° 0 mm 3 mps 759 mmHg 44%
    12:00 +29°C° 0 mm 3 mps 758 mmHg 40%
    13:00 +29°C° 0 mm 3 mps 758 mmHg 38%
    14:00 +30°C° 0 mm 3 mps 757 mmHg 37%
    15:00 +30°C° 0 mm 2 mps 756 mmHg 35%
    16:00 +28°C° 0 mm 2 mps 756 mmHg 40%
    17:00 +27°C° 0 mm 2 mps 757 mmHg 44%
    18:00 +25°C° 0 mm 2 mps 757 mmHg 48%
    19:00 +24°C° 0 mm 2 mps 757 mmHg 50%
    20:00 +24°C° 0 mm 2 mps 758 mmHg 53%
    21:00 +23°C° 0 mm 2 mps 758 mmHg 56%
    22:00 +21°C° 0 mm 2 mps 758 mmHg 57%
    23:00 +21°C° 0 mm 2 mps 758 mmHg 59%

    26 November, Monday

    Time Temperature Precipitation Wind Pressure Humidity
    00:00 +20°C° 0 mm 2 mps 758 mmHg 61%
    01:00 +20°C° 0 mm 2 mps 758 mmHg 62%
    02:00 +19°C° 0 mm 2 mps 757 mmHg 63%
    03:00 +19°C° 0 mm 2 mps 757 mmHg 64%
    04:00 +18°C° 0 mm 2 mps 757 mmHg 66%
    05:00 +18°C° 0 mm 2 mps 757 mmHg 67%
    06:00 +18°C° 0 mm 2 mps 757 mmHg 68%
    07:00 +19°C° 0 mm 2 mps 758 mmHg 64%
    08:00 +21°C° 0 mm 3 mps 759 mmHg 60%
    09:00 +22°C° 0 mm 3 mps 759 mmHg 56%
    10:00 +25°C° 0 mm 3 mps 759 mmHg 50%
    11:00 +27°C° 0 mm 3 mps 758 mmHg 44%
    12:00 +29°C° 0 mm 3 mps 758 mmHg 39%
    13:00 +29°C° 0 mm 3 mps 757 mmHg 37%
    14:00 +30°C° 0 mm 2 mps 757 mmHg 35%
    15:00 +30°C° 0 mm 2 mps 756 mmHg 32%
    16:00 +29°C° 0 mm 2 mps 756 mmHg 36%
    17:00 +27°C° 0 mm 1 mps 757 mmHg 40%
    18:00 +25°C° 0 mm 1 mps 757 mmHg 44%
    19:00 +25°C° 0 mm 2 mps 757 mmHg 46%
    20:00 +24°C° 0 mm 2 mps 758 mmHg 48%
    21:00 +23°C° 0 mm 2 mps 759 mmHg 50%
    22:00 +21°C° 0 mm 2 mps 758 mmHg 51%
    23:00 +21°C° 0 mm 2 mps 758 mmHg 52%
    Show more